Greensboro, NC

11:50 AM EDT on March 23, 2017 (GMT -0400)
Piedmont Triad International

Weather History for KGSO - November, 2014

Change the Weather History Date:

Monday, November 10, 2014

  Actual Average Record
Temperature  
Mean Temperature 52 °F 52 °F  
Max Temperature 67 °F 63 °F 80 °F (1945)
Min Temperature 36 °F 41 °F 24 °F (1923)
Degree Days  
Heating Degree Days 13 13  
Month to date heating degree days 149 117  
Since 1 July heating degree days 317 350  
Cooling Degree Days 0 0  
Month to date cooling degree days 0 0  
Year to date cooling degree days 1499 1480  
Growing Degree Days 1 (Base 50)    
Moisture  
Dew Point 39 °F    
Average Humidity 65    
Maximum Humidity 92    
Minimum Humidity 37    
Precipitation  
Precipitation 0.00 in 0.10 in 1.86 in (1987)
Month to date precipitation 0.96 1.07  
Year to date precipitation 31.78 37.18  
Snow  
Snow 0.00 in 0.00 in 0.10 in (1968)
Month to date snowfall 0.0  
Since 1 July snowfall 0.0  
Since 1 September snowfall 0.0  
Snow Depth -    
Sea Level Pressure  
Sea Level Pressure 30.08 in    
Wind  
Wind Speed 3 mph (ESE)    
Max Wind Speed 10 mph    
Max Gust Speed 18 mph    
Visibility 10 miles    
Events      
T = Trace of Precipitation, MM = Missing Value Source: NWS Daily Summary

Daily Weather History Graph

Daily Weather History Graph

Search for Another Location

Airport or City:

Trip Planner

Search our weather history database for the weather conditions in past years. The results will help you decide how hot, cold, wet, or windy it might be!

Date:

Astronomy

Nov. 10, 2014 Rise Set
Actual Time 6:51 AM EST 5:15 PM EST
Civil Twilight 6:24 AM EST 5:42 PM EST
Nautical Twilight 5:53 AM EST 6:13 PM EST
Astronomical Twilight 5:23 AM EST 6:43 PM EST
Moon 8:42 PM EST (11/10) 10:11 AM EST (11/10)
Length of Visible Light 11h 18m
Length of Day
10h 24m
Waning Gibbous, 85% of the Moon is Illuminated
Nov 10
Waning Gibbous
Nov 14
Last Quarter
Nov 22
New
Nov 29
First Quarter
Dec 6
Full

Hourly Weather History & Observations

Time (EST) Temp. Dew Point Humidity Pressure Visibility Wind Dir Wind Speed Gust Speed Precip Events Conditions
12:54 AM 39.9 °F 36.0 °F 86% 30.04 in 10.0 mi Calm Calm - N/A   Clear
1:54 AM 41.0 °F 37.0 °F 86% 30.03 in 10.0 mi Calm Calm - N/A   Clear
2:54 AM 39.0 °F 36.0 °F 89% 30.04 in 10.0 mi Calm Calm - N/A   Clear
3:54 AM 37.9 °F 35.1 °F 89% 30.05 in 10.0 mi Calm Calm - N/A   Clear
4:54 AM 37.9 °F 35.1 °F 89% 30.06 in 10.0 mi Calm Calm - N/A   Clear
5:54 AM 37.9 °F 36.0 °F 93% 30.07 in 10.0 mi Calm Calm - N/A   Clear
6:54 AM 37.9 °F 35.1 °F 89% 30.09 in 10.0 mi Calm Calm - N/A   Partly Cloudy
7:54 AM 39.9 °F 37.0 °F 89% 30.10 in 10.0 mi Calm Calm - N/A   Partly Cloudy
8:54 AM 50.0 °F 44.1 °F 80% 30.12 in 9.0 mi SSE 3.5 mph - N/A   Partly Cloudy
9:54 AM 55.9 °F 43.0 °F 62% 30.11 in 10.0 mi Calm Calm - N/A   Partly Cloudy
10:54 AM 61.0 °F 41.0 °F 48% 30.12 in 10.0 mi ESE 5.8 mph - N/A   Partly Cloudy
11:54 AM 63.0 °F 39.9 °F 43% 30.11 in 10.0 mi SE 9.2 mph - N/A   Partly Cloudy
12:54 PM 64.9 °F 39.0 °F 39% 30.09 in 10.0 mi ESE 8.1 mph - N/A   Partly Cloudy
1:54 PM 66.0 °F 39.9 °F 38% 30.07 in 10.0 mi ESE 6.9 mph - N/A   Partly Cloudy
2:54 PM 66.0 °F 39.9 °F 38% 30.06 in 10.0 mi East 4.6 mph - N/A   Scattered Clouds
3:54 PM 64.9 °F 39.9 °F 40% 30.06 in 10.0 mi ESE 6.9 mph - N/A   Scattered Clouds
4:54 PM 61.0 °F 39.9 °F 46% 30.07 in 10.0 mi SE 8.1 mph - N/A   Scattered Clouds
5:54 PM 55.9 °F 41.0 °F 57% 30.09 in 10.0 mi SE 5.8 mph - N/A   Partly Cloudy
6:54 PM 55.0 °F 39.9 °F 57% 30.09 in 10.0 mi East 3.5 mph - N/A   Partly Cloudy
7:54 PM 53.1 °F 39.9 °F 61% 30.09 in 10.0 mi ESE 3.5 mph - N/A   Clear
8:54 PM 51.1 °F 41.0 °F 68% 30.09 in 10.0 mi Calm Calm - N/A   Partly Cloudy
9:54 PM 50.0 °F 41.0 °F 71% 30.09 in 10.0 mi Calm Calm - N/A   Clear
10:54 PM 45.0 °F 39.0 °F 80% 30.06 in 10.0 mi Calm Calm - N/A   Clear
11:54 PM 45.0 °F 39.0 °F 80% 30.05 in 10.0 mi Calm Calm - N/A   Clear